Station AWRT2 - 8774230 - Aransas Wildlife Refuge, TX Image indicating link to RSS feed of recent meteorological observations for station AWRT2


Conditions at AWRT2 as of
(11:18 am CDT)
1618 GMT on 04/14/2024:
     

Click on the graph icon in the table below to see a time series plot of the last five days of that observation.

5-day plot - Wind Direction Wind Direction (WDIR):SSE ( 160 deg true )
5-day plot - Wind Speed Wind Speed (WSPD): 12.0 kts
5-day plot - Wind Gust Wind Gust (GST): 14.0 kts
5-day plot - Atmospheric Pressure Atmospheric Pressure (PRES):30.06 in
5-day plot - Air Temperature Air Temperature (ATMP): 75.0 °F
5-day plot - Water Temperature Water Temperature (WTMP): 73.8 °F
5-day plot - Wind Speed at 10 Meters Wind Speed at 10 meters (WSPD10M): 11.7 kts
5-day plot - Wind Speed at 20 Meters Wind Speed at 20 meters (WSPD20M): 13.6 kts
5-day plot -  Wind Speed, Wind Gust and Atmospheric Pressure Combined plot of Wind Speed, Gust, and Air Pressure
Previous observations
TIME
(CDT)
5-day plot - Wind Direction
WDIR
 
5-day plot - Wind Speed
WSPD
kts
5-day plot - Wind Gust
GST
kts
5-day plot - Wave Height
WVHT
ft
5-day plot - Dominant Wave Period
DPD
sec
5-day plot - Average Wave Period
APD
sec
5-day plot - Mean Wave Direction
MWD
 
5-day plot - Atmospheric Pressure
PRES
in
5-day plot - Pressure Tendency
PTDY
in
5-day plot - Air Temperature
ATMP
°F
5-day plot - Water Temperature
WTMP
°F
5-day plot - Dew Point
DEWP
°F
5-day plot - Salinity
SAL
psu
5-day plot - Visibility
VIS
nmi
5-day plot - Tide (above MLLW)
TIDE
ft
2024-04-14 11:12 amSSE 11.1 15.0----30.06- 74.7 73.8----
2024-04-14 11:06 amSSE 9.9 13.0----30.07- 74.7 73.8----
2024-04-14 11:00 amSSE 9.9 13.0----30.07+0.04 74.7 73.8----
2024-04-14 10:54 am S 12.0 15.9----30.06- 75.0 73.6----
2024-04-14 10:48 amSSE 12.0 15.0----30.06- 74.8 73.6----
2024-04-14 10:42 amSSE 12.0 15.0----30.06- 74.7 73.0----
2024-04-14 10:36 am S 11.1 15.0----30.06- 74.8 73.2----
2024-04-14 10:30 amSSE 8.9 14.0----30.06-- 73.2----
2024-04-14 10:24 amSSE 12.0 17.1----30.06-- 73.4----
2024-04-14 10:18 amSSE 9.9 15.0----30.05-- 73.4----
2024-04-14 10:12 am S 9.9 15.0----30.06-- 73.6----
2024-04-14 10:06 am S 9.9 15.0----30.05-- 73.6----
2024-04-14 10:00 amSSE 11.1 14.0----30.05+0.03 73.8 73.8----
2024-04-14 09:54 amSSE 12.0 14.0----30.05- 73.6 73.8----
2024-04-14 09:48 amSSE 9.9 14.0----30.04- 73.8 73.8----
2024-04-14 09:42 am S 11.1 15.0----30.04- 73.9 73.6----
2024-04-14 09:36 am S 11.1 14.0----30.04- 73.6 73.6----
2024-04-14 09:30 am S 8.9 15.0----30.04- 73.9 73.2----
2024-04-14 09:24 am S 9.9 14.0----30.04- 73.8 73.2----
2024-04-14 09:18 am S 9.9 15.0----30.04- 73.6 73.0----
2024-04-14 09:12 am S 8.9 12.0----30.04- 73.6 72.9----
2024-04-14 09:06 am S 9.9 13.0----30.04- 73.4 72.9----
2024-04-14 09:00 am S 9.9 12.0----30.04+0.03- 72.7----
2024-04-14 08:54 am S 9.9 14.0----30.03-- 72.7----
2024-04-14 08:48 am S 12.0 15.9----30.03- 73.2 72.1----
2024-04-14 08:42 am S 9.9 12.0----30.03- 72.9 72.3----
2024-04-14 08:36 am S 9.9 12.0----30.03- 72.9 72.5----
2024-04-14 08:30 am S 8.9 12.0----30.03-- 72.5----
2024-04-14 08:24 am S 7.0 8.9----30.03-- 72.7----
2024-04-14 08:18 am S 8.0 9.9----30.03- 72.5 72.7----
2024-04-14 08:12 am S 6.0 8.9----30.03- 72.3 72.7----
2024-04-14 08:06 am S 7.0 11.1----30.03- 72.3 72.7----
2024-04-14 08:00 am S 8.0 12.0----30.03- 72.1 73.0----
2024-04-14 07:54 am S 8.9 11.1----30.02- 72.1 73.0----
2024-04-14 07:48 am-------30.03- 72.1 73.2----
2024-04-14 07:42 am-------30.03- 72.1 73.2----
2024-04-14 07:36 am-------30.02- 72.1 73.4----
2024-04-14 07:30 am S 9.9 13.0----30.02-- 73.6----
2024-04-14 07:24 am S 9.9 13.0----30.02-- 73.8----
2024-04-14 07:18 am S 11.1 15.0----30.02- 72.1 73.9----
2024-04-14 07:12 am S 9.9 14.0----30.02- 72.1 73.9----
2024-04-14 07:06 am S 11.1 14.0----30.02- 72.1 73.9----
2024-04-14 07:00 am S 12.0 14.0----30.02-0.01- 74.1----
2024-04-14 06:54 am S 9.9 13.0----30.02-- 74.3----
2024-04-14 06:48 am S 11.1 14.0----30.02-- 74.3----
2024-04-14 06:42 am S 8.0 12.0----30.02-- 74.7----
2024-04-14 06:36 am S 9.9 13.0----30.02-- 74.8----
2024-04-14 06:30 am S 9.9 12.0----30.01- 71.8 74.8----
2024-04-14 06:24 am S 9.9 12.0----30.01- 71.6 74.8----
2024-04-14 06:18 am S 8.9 13.0----30.01-------
2024-04-14 06:12 am S 9.9 13.0----30.01-------
2024-04-14 06:06 am S 11.1 12.0----30.01-------
2024-04-14 06:00 am S 9.9 12.0----30.01-0.02 71.4 74.8----
2024-04-14 05:54 am S 8.9 12.0----30.01- 71.4 74.8----
2024-04-14 05:48 am S 8.0 11.1----30.02-- 74.8----
2024-04-14 05:42 am S 8.9 12.0----30.02-- 74.8----
2024-04-14 05:36 am S 8.0 12.0----30.01-- 75.0----
2024-04-14 05:30 amSSE 9.9 12.0----30.02- 71.6 75.0----
2024-04-14 05:24 amSSE 8.0 11.1----30.01- 71.6 75.0----
2024-04-14 05:18 amSSE 8.0 12.0----30.01- 71.6 75.0----
2024-04-14 05:12 amSSE 8.9 12.0----30.01- 71.6 75.0----
2024-04-14 05:06 amSSE 8.9 12.0----30.01- 71.6 75.2----
2024-04-14 05:00 amSSE 8.9 11.1------ 71.6-----
2024-04-14 04:54 amSSE 8.0 11.1------ 71.6-----
2024-04-14 04:48 amSSE 7.0 11.1------ 71.6 75.2----
2024-04-14 04:42 amSSE 7.0 11.1------ 71.6 75.2----
2024-04-14 04:36 amSSE 6.0 9.9------ 71.6 75.2----
2024-04-14 04:30 amSSE 8.9 11.1----30.01-- 75.2----
2024-04-14 04:24 amSSE 8.0 9.9----30.02-- 75.2----
2024-04-14 04:18 am S 7.0 11.1----30.02- 71.6 75.2----
2024-04-14 04:12 amSSE 8.9 11.1----30.02- 71.6 75.2----
2024-04-14 04:06 am S 8.9 9.9----30.02- 71.6 75.2----
2024-04-14 04:00 am S 8.0 9.9----30.03-0.04 71.6 75.2----
2024-04-14 03:54 am S 7.0 8.9----30.03- 71.6 75.2----
2024-04-14 03:48 amSSE 7.0 11.1----30.03- 71.6 75.2----
2024-04-14 03:42 amSSE 7.0 9.9----30.03- 71.6 75.2----
2024-04-14 03:36 amSSE 8.9 11.1----30.03- 71.6 75.2----
2024-04-14 03:30 am S 8.0 9.9----30.03- 71.6 75.2----
2024-04-14 03:24 am S 8.9 11.1----30.04- 71.6 75.2----
2024-04-14 03:18 am S 8.9 12.0----30.04- 71.6 75.2----
2024-04-14 03:12 am S 8.9 12.0----30.03- 71.6 75.2----
2024-04-14 03:06 am S 8.9 12.0----30.03- 71.6 75.2----
2024-04-14 03:00 am S 8.9 12.0----30.03-0.04 71.8 75.2----
2024-04-14 02:54 am S 8.9 13.0----30.04- 71.8 75.2----
2024-04-14 02:48 am S 8.9 13.0----30.04- 71.8 75.2----
2024-04-14 02:42 am S 8.9 12.0----30.04- 71.8 75.2----
2024-04-14 02:36 am S 8.9 13.0----30.04- 71.8 75.2----
2024-04-14 02:30 am S 8.0 13.0----30.04- 72.0 75.2----
2024-04-14 02:24 am S 9.9 13.0----30.05- 72.0 75.4----
2024-04-14 02:18 am S 9.9 13.0----30.05- 72.0 75.4----
2024-04-14 02:12 am S 9.9 13.0----30.05- 72.0 75.4----
2024-04-14 02:06 am S 9.9 13.0----30.05- 72.1 75.4----
2024-04-14 02:00 am S 11.1 14.0----30.06-0.03 72.1 75.4----
2024-04-14 01:54 am S 8.9 14.0----30.06- 72.1 75.4----
2024-04-14 01:48 am S 11.1 13.0----30.06- 72.1 75.4----
2024-04-14 01:42 am S 12.0 14.0----30.06- 72.1 75.4----
2024-04-14 01:36 am S 9.9 13.0----30.06- 72.1 75.4----
2024-04-14 01:30 am S 11.1 13.0----30.06- 72.1 75.4----
2024-04-14 01:24 am S 9.9 15.9----30.06- 72.3 75.4----
2024-04-14 01:18 am S 12.0 15.0----30.06- 72.3 75.4----
2024-04-14 01:12 am S 12.0 15.0----30.06- 72.3 75.4----
2024-04-14 01:06 am S 12.0 17.1----30.07- 72.3 75.4----
2024-04-14 01:00 am S 13.0 15.9----30.06-0.01 72.3 75.4----
2024-04-14 12:54 am S 11.1 15.0----30.07- 72.3 75.4----
2024-04-14 12:48 am S 12.0 15.9----30.06- 72.3 75.4----
2024-04-14 12:42 am S 11.1 15.0----30.07- 72.3 75.4----
2024-04-14 12:36 am S 11.1 14.0----30.07- 72.3 75.4----
2024-04-14 12:30 am S 12.0 17.1----30.07- 72.3 75.4----
2024-04-14 12:24 am S 12.0 15.0----30.07- 72.3 75.4----
2024-04-14 12:18 am S 12.0 15.9----30.07- 72.3 75.4----
2024-04-14 12:12 am S 12.0 15.0----30.07- 72.3 75.4----
2024-04-14 12:06 am S 11.1 14.0----30.07- 72.5 75.6----
2024-04-14 12:00 am S 11.1 15.0----30.07-0.01 72.5 75.7----
2024-04-13 11:54 pm S 13.0 17.1----30.08- 72.5 75.7----
2024-04-13 11:48 pm S 12.0 17.1----30.07- 72.5 75.7----
2024-04-13 11:42 pm S 12.0 15.9----30.07- 72.5 75.7----
2024-04-13 11:36 pm S 13.0 15.9----30.07- 72.5 75.9----
2024-04-13 11:30 pm S 11.1 15.9----30.08- 72.5 75.9----
2024-04-13 11:24 pm S 12.0 15.9----30.08- 72.5 75.9----
2024-04-13 11:18 pm S 12.0 15.0----30.08- 72.5 75.9----
2024-04-13 11:12 pm S 11.1 15.9----30.08- 72.5 75.9----
2024-04-13 11:06 pm S 13.0 15.0----30.08- 72.5 76.1----
2024-04-13 11:00 pm S 13.0 15.9----30.08+0.00 72.5 76.3----
2024-04-13 10:54 pm S 12.0 15.0----30.08- 72.5 76.3----
2024-04-13 10:48 pm S 11.1 15.9----30.08- 72.5 76.3----
2024-04-13 10:42 pm S 12.0 15.9----30.08- 72.7 76.3----
2024-04-13 10:36 pm S 12.0 17.1----30.08- 72.7 76.3----
2024-04-13 10:30 pm S 13.0 17.1----30.08- 72.7 76.5----
2024-04-13 10:24 pm S 13.0 18.1----30.08- 72.9 76.5----
2024-04-13 10:18 pm S 13.0 19.0----30.08- 72.9 76.5----
2024-04-13 10:12 pm S 14.0 18.1----30.08- 72.9 76.5----
2024-04-13 10:06 pm S 13.0 15.9----30.08- 72.9 76.5----
2024-04-13 10:00 pmSSE 13.0 19.0----30.08-0.02 72.9 76.5----
2024-04-13 09:54 pmSSE 14.0 19.0----30.07- 72.9 76.5----
2024-04-13 09:48 pmSSE 14.0 18.1----30.07- 72.9 76.6----
2024-04-13 09:42 pmSSE 12.0 19.0----30.07- 72.7 76.6----
2024-04-13 09:36 pmSSE 14.0 19.0----30.07- 72.7 76.6----
2024-04-13 09:30 pmSSE 15.0 19.0----30.08- 72.7 76.6----
2024-04-13 09:24 pmSSE 13.0 18.1----30.07- 72.7 76.6----
2024-04-13 09:18 pmSSE 13.0 18.1----30.08- 72.9 76.6----
2024-04-13 09:12 pmSSE 13.0 18.1----30.08- 72.7 76.8----
2024-04-13 09:06 pmSSE 13.0 17.1----30.08- 72.9 76.8----
2024-04-13 09:00 pmSSE 13.0 17.1----30.08-0.02 72.7 76.8----
2024-04-13 08:54 pmSSE 13.0 17.1----30.08- 72.7 76.8----
2024-04-13 08:48 pmSSE 12.0 15.9----30.08- 72.7 76.8----
2024-04-13 08:42 pmSSE 12.0 17.1----30.08- 72.5 76.8----
2024-04-13 08:36 pmSSE 13.0 17.1----30.08- 72.7 76.8----
2024-04-13 08:30 pm SE 12.0 18.1----30.08- 72.5 76.8----
2024-04-13 08:24 pmSSE 12.0 18.1----30.08- 72.7 76.8----
2024-04-13 08:18 pm SE 12.0 17.1----30.08- 72.7 76.8----
2024-04-13 08:12 pm SE 14.0 20.0----30.08- 72.7 76.8----
2024-04-13 08:06 pm SE 14.0 18.1----30.08- 72.7 76.8----
2024-04-13 08:00 pm SE 11.1 17.1----30.09-0.03 72.7 76.8----
2024-04-13 07:54 pm SE 13.0 18.1----30.09- 72.7 76.8----
2024-04-13 07:48 pm SE 15.0 20.0----30.09- 72.7 76.8----
2024-04-13 07:42 pm SE 15.9 20.0----30.08- 72.9 77.0----
2024-04-13 07:36 pm SE 15.0 20.0----30.08- 73.0 77.0----
2024-04-13 07:30 pm SE 15.0 21.0----30.09- 72.9 77.0----
2024-04-13 07:24 pm SE 15.0 20.0----30.09- 73.2 77.0----
2024-04-13 07:18 pm-------30.09- 73.0 77.0----
2024-04-13 07:12 pm-------30.09- 73.4 77.0----
2024-04-13 07:06 pm-------30.10- 73.4 77.0----
2024-04-13 07:00 pm-------30.10-0.03 73.6 77.0----
2024-04-13 06:54 pm-------30.10- 73.6 77.0----
2024-04-13 06:48 pm SE 15.0 19.0----30.10- 73.6 77.2----
2024-04-13 06:42 pm SE 13.0 20.0----30.10- 73.6 77.2----
2024-04-13 06:36 pm SE 15.0 21.0----30.10- 73.8 77.2----
2024-04-13 06:30 pm SE 15.0 19.0----30.10- 73.6 77.2----
2024-04-13 06:24 pm SE 15.9 21.0----30.10- 73.6 77.2----
2024-04-13 06:18 pm SE 15.0 19.0----30.10- 73.8 77.2----
2024-04-13 06:00 pm SE 14.0 20.0----30.10-0.05 73.9 77.4----
2024-04-13 05:54 pm SE 15.0 19.0----30.11- 73.8 77.2----
2024-04-13 05:48 pmESE 15.0 20.0----30.11- 73.9-----
2024-04-13 05:42 pm SE 13.0 21.0----30.11- 73.9-----
2024-04-13 05:36 pm SE 17.1 20.0----30.11- 73.9-----
2024-04-13 05:30 pm SE 15.0 20.0----30.11- 73.9 77.4----
2024-04-13 05:24 pm SE 14.0 19.0----30.11- 74.3 77.4----
2024-04-13 05:18 pmESE 15.0 20.0----30.11- 73.9 77.4----
2024-04-13 05:12 pmESE 15.9 19.0----30.11- 73.9 77.4----
2024-04-13 05:06 pm SE 14.0 20.0----30.11- 74.5 77.4----
2024-04-13 05:00 pmESE 15.0 19.0----30.11-0.06 74.3 77.2----
2024-04-13 04:54 pmESE 15.0 19.0----30.11- 74.3 77.2----
2024-04-13 04:48 pm SE 15.9 20.0----30.11- 74.1 77.2----
2024-04-13 04:42 pmESE 15.0 19.0----30.12- 74.1 77.2----
2024-04-13 04:36 pmESE 14.0 18.1----30.12- 74.3 77.2----
2024-04-13 04:30 pmESE 14.0 19.0----30.12- 74.5 77.2----
2024-04-13 04:24 pm SE 14.0 19.0----30.12- 74.7 77.0----
2024-04-13 04:18 pmESE 14.0 19.0----30.13- 74.5 77.0----
2024-04-13 04:12 pmESE 13.0 18.1----30.13- 74.7 77.0----
2024-04-13 04:06 pmESE 12.0 19.0----30.13- 74.8 77.0----
2024-04-13 04:00 pmESE 13.0 19.0----30.13-0.08 74.8 76.8----
2024-04-13 03:54 pmESE 15.0 19.0----30.13- 74.3 76.8----
2024-04-13 03:48 pm--------- 74.5 76.8----
2024-04-13 03:42 pm--------- 74.7 76.6----
2024-04-13 03:36 pm--------- 74.7 76.6----
2024-04-13 03:30 pmESE 14.0 19.0----30.14-- 76.6----
2024-04-13 03:24 pmESE 14.0 18.1----30.14-- 76.6----
2024-04-13 03:18 pm SE 14.0 18.1----30.14- 74.7 76.6----
2024-04-13 03:12 pmESE 12.0 18.1----30.15- 74.8 76.6----
2024-04-13 03:06 pm SE 14.0 19.0----30.15- 74.8 76.5----
2024-04-13 03:00 pmESE 13.0 19.0----30.15-0.07 74.8 76.3----
2024-04-13 02:54 pm SE 14.0 19.0----30.16- 75.2 76.3----
2024-04-13 02:48 pm SE 13.0 18.1----30.16- 75.0 76.3----
2024-04-13 02:42 pm SE 15.0 19.0----30.16- 75.0 76.1----
2024-04-13 02:36 pm SE 13.0 17.1----30.16- 75.0 76.1----
2024-04-13 02:30 pm SE 14.0 19.0----30.17- 74.8 75.9----
2024-04-13 02:24 pm SE 14.0 18.1----30.17- 74.8 75.9----
2024-04-13 02:18 pm SE 13.0 18.1----30.17- 74.8 75.9----
2024-04-13 02:12 pm SE 13.0 19.0----30.18- 74.8 75.9----
2024-04-13 02:06 pm SE 12.0 15.9----30.18- 75.0 75.7----
2024-04-13 02:00 pm SE 13.0 18.1----30.18-0.04 75.2 75.6----
2024-04-13 01:54 pm SE 13.0 17.1----30.19- 75.0 75.6----
2024-04-13 01:48 pm SE 12.0 15.9----30.19-- 75.7----
2024-04-13 01:42 pm SE 12.0 19.0----30.19-- 75.7----
2024-04-13 01:36 pm SE 13.0 17.1----30.20-- 75.9----
2024-04-13 01:30 pmESE 12.0 15.0----30.20- 74.8 75.9----
2024-04-13 01:24 pmESE 12.0 15.9----30.20- 74.8 75.4----
2024-04-13 01:18 pm-------30.21-- 75.4----
2024-04-13 01:12 pm-------30.21-- 75.4----
2024-04-13 01:06 pm-------30.21-- 75.4----
2024-04-13 01:00 pm SE 12.0 15.9----30.21+0.00 74.8 75.4----
2024-04-13 12:54 pm SE 12.0 15.9----30.22- 74.7 75.4----
2024-04-13 12:48 pm SE 12.0 15.0----30.22-- 75.4----
2024-04-13 12:42 pm SE 12.0 15.9----30.22-- 75.4----
2024-04-13 12:36 pm SE 12.0 15.0----30.22-- 75.6----
2024-04-13 12:30 pmESE 11.1 14.0----30.22- 74.7 74.5----
2024-04-13 12:24 pm SE 12.0 15.0----30.22- 74.8 74.3----
2024-04-13 12:18 pmESE 11.1 15.0----30.22- 74.7 74.1----
2024-04-13 12:12 pm SE 12.0 15.0----30.22- 74.3 73.6----
2024-04-13 12:06 pm SE 12.0 17.1----30.22- 74.3 73.0----
2024-04-13 12:00 pm SE 13.0 15.9----30.22+0.03 74.1 72.7----
2024-04-13 11:54 am SE 11.1 15.0----30.23- 74.5 72.5----